STARLINK-5034, 53888

Orbit data source: Space-Track

STARLINK-5034, 53888 is a payload satellite owned by SpaceX/Seattle (US) in LEO that was launched on Sat, 24 Sep 2022 UTC via an FALCON 9 launch vehicle from the Air Force Eastern Test Range (AFETR). Payload-class satellites include a variety of spacecraft equipped with specific instruments for various scientific and technological missions. These include communications satellites like Starlink; space stations such as the ISS; scientific satellites like the Hubble; Earth observation satellites from companies like Planet Labs, Umbra, and HawkEye 360; GPS; miniature CubeSats for education and research; and military/defense satellites.

Not visible in the next 10 days
Identifier
53888, 2022-119C
Orbit
LEO
Country
Flag of USUS
Related business
Manufacturer
SpaceX/Seattle
Mission
Partially operational Commercial Communications
Bus & Motor
STARLINK, Unknown motor
Mass
305 kg wet, ~290 kg dry
Launch date (UTC)
2022-09-24 (4 years ago)
Launch vehicle
FALCON 9
Launch site
Air Force Eastern Test Range (AFETR)
Object type
Payload
Rocket body
Debris
Shape & HBR
Box + 1 Pan, 10.1 m
Radar Cross Section
13.562 m², Large (>1 m²)

Expand to show TLE details & history
Last TLE update: 5 hours ago

TLE from 5 hours ago
0 STARLINK-5034
1 53888U 22119C   26173.23323385  .00530839  15635-3  54109-3 0  9998
2 53888  53.2085 175.0725 0000814 175.6946 184.4097 16.10279584208023
Epoch: 2026-06-22T05:35Z
TLE epoch observation values (Epoch: 2026-06-22T05:35:51.404Z)
Latitude
-0.00005°
Longitude
-179.31381°
Altitude
247.55 km
Speed
7.759 km/s
True Right ascension
11h 40m 17s
True Declination
0° 00' 00"
Sunlit
Object was in daylight at epoch
Visualization orbit readout
Latitude
Unknown
Longitude
Unknown
Altitude
Unknown
Speed
Unknown
Apparent Right ascension
Unknown
Apparent Declination
Unknown
Sunlit
N/A
Visualization observer readout
Local Sidereal Time
21:32:34
Azimuth
Unknown
Elevation
Unknown
Doppler factor
Unknown
Orbital elements
Apogee altitude
246.873 km
Perigee altitude
245.794 km
Semi-major axis
6,624.47 km
Eccentricity
0.00008
Inclination
53.2085°
RAAN
175.0725°
Arg. of periapsis
175.6946°
True anomaly
184.40898°
Mean anomaly
184.4097°
Eccentric anomaly
184.40934°
Mean motion
4.02547 °/min
Orbital period
89.43 mins
BSTAR
0.00054109
Loading maneuver chart data...
Computing Atmospheric mass density...
Loading historical data...
Loading historical data...
Loading historical data...
Loading historical data...
Loading historical data...
Loading historical data...
Loading historical data...

Documentation

Showing up to 5 results
|